FFT8385 KDCA-KATL

Flight info

Callsign FFT8385
Flight time N/A
Altitude 34000
Route CLTCH3 FLASK OZZZI2
Aircraft A20N/M-SDE2E3FGHIRWXY/LB1

Departure

Time 2026-05-08 02:06
Airport Ronald Reagan Washington National Airport (KDCA)

Arrival

Time N/A
Airport Hartsfield Jackson Atlanta International Airport (KATL)
Time Latitude Longitude Altitude Speed Heading
2026-05-08 01:53 38.85370 -77.04115 23 ft 0 kts 322°
2026-05-08 01:56 38.85365 -77.04110 23 ft 2 kts 323°
2026-05-08 01:56 38.85353 -77.04098 23 ft 2 kts 327°
2026-05-08 01:56 38.85339 -77.04093 22 ft 2 kts
2026-05-08 01:57 38.85324 -77.04098 23 ft 2 kts 32°
2026-05-08 01:57 38.85313 -77.04111 23 ft 2 kts 61°
2026-05-08 01:57 38.85310 -77.04120 23 ft 1 kts 76°
2026-05-08 01:57 38.85309 -77.04127 23 ft 0 kts 75°
2026-05-08 02:00 38.85313 -77.04114 23 ft 4 kts 68°
2026-05-08 02:00 38.85329 -77.04054 22 ft 10 kts 70°
2026-05-08 02:00 38.85377 -77.04001 21 ft 11 kts
2026-05-08 02:01 38.85456 -77.04008 21 ft 10 kts 355°
2026-05-08 02:01 38.85530 -77.04024 21 ft 11 kts 345°
2026-05-08 02:01 38.85611 -77.04038 19 ft 13 kts 356°
2026-05-08 02:01 38.85690 -77.04041 18 ft 9 kts 348°
2026-05-08 02:02 38.85704 -77.04045 18 ft 0 kts 349°
2026-05-08 02:02 38.85705 -77.04046 18 ft 1 kts 350°
2026-05-08 02:02 38.85736 -77.04050 17 ft 8 kts 354°
2026-05-08 02:02 38.85811 -77.04057 17 ft 11 kts 356°
2026-05-08 02:03 38.85903 -77.04059 17 ft 13 kts 19°
2026-05-08 02:03 38.85958 -77.03969 14 ft 12 kts 25°
2026-05-08 02:03 38.85998 -77.03953 14 ft 0 kts 14°
2026-05-08 02:04 38.86026 -77.03944 14 ft 11 kts 14°
2026-05-08 02:04 38.86060 -77.03877 13 ft 8 kts 140°
2026-05-08 02:05 38.85983 -77.03861 13 ft 30 kts 176°
2026-05-08 02:05 38.85568 -77.03820 17 ft 92 kts 176°
2026-05-08 02:05 38.84757 -77.03733 17 ft 145 kts 175°
2026-05-08 02:05 38.83665 -77.03630 259 ft 166 kts 178°
2026-05-08 02:06 38.82498 -77.03560 790 ft 171 kts 180°
2026-05-08 02:06 38.81316 -77.03528 1405 ft 174 kts 181°
2026-05-08 02:06 38.80040 -77.03520 1809 ft 192 kts 182°
2026-05-08 02:06 38.78637 -77.03516 2264 ft 209 kts 181°
2026-05-08 02:07 38.77119 -77.03597 2722 ft 226 kts 195°
2026-05-08 02:07 38.75692 -77.04523 3174 ft 238 kts 227°
2026-05-08 02:07 38.74788 -77.06353 3649 ft 248 kts 258°
2026-05-08 02:07 38.74603 -77.08515 4232 ft 257 kts 271°
2026-05-08 02:08 38.74526 -77.10821 5091 ft 259 kts 269°
2026-05-08 02:08 38.74237 -77.13083 5970 ft 262 kts 258°
2026-05-08 02:08 38.73605 -77.15264 6822 ft 266 kts 249°
2026-05-08 02:08 38.72817 -77.17421 7699 ft 266 kts 248°
2026-05-08 02:09 38.72027 -77.19520 8545 ft 266 kts 248°
2026-05-08 02:09 38.71224 -77.21659 9375 ft 267 kts 249°
2026-05-08 02:09 38.70501 -77.23807 10192 ft 265 kts 251°
2026-05-08 02:09 38.69796 -77.26029 10775 ft 274 kts 251°
2026-05-08 02:10 38.69057 -77.28366 11097 ft 291 kts 251°
2026-05-08 02:10 38.68279 -77.30821 11429 ft 307 kts 250°
2026-05-08 02:10 38.67472 -77.33360 12030 ft 313 kts 250°
2026-05-08 02:10 38.66643 -77.35951 12803 ft 313 kts 250°
2026-05-08 02:11 38.65837 -77.38481 13564 ft 312 kts 250°
2026-05-08 02:11 38.65028 -77.41013 14286 ft 312 kts 250°
2026-05-08 02:11 38.64210 -77.43566 14983 ft 312 kts 250°
2026-05-08 02:11 38.63381 -77.46149 15605 ft 315 kts 250°
2026-05-08 02:12 38.62555 -77.48727 16141 ft 319 kts 250°
2026-05-08 02:12 38.61714 -77.51354 16746 ft 321 kts 250°
2026-05-08 02:12 38.60876 -77.53971 17339 ft 322 kts 250°
2026-05-08 02:12 38.60019 -77.56639 17961 ft 323 kts 251°
2026-05-08 02:13 38.59175 -77.59271 18544 ft 324 kts 251°
2026-05-08 02:13 38.58321 -77.61925 19121 ft 324 kts 250°
2026-05-08 02:13 38.57457 -77.64606 19691 ft 325 kts 251°
2026-05-08 02:13 38.56604 -77.67257 20241 ft 326 kts 251°
2026-05-08 02:14 38.55742 -77.69923 20799 ft 327 kts 250°
2026-05-08 02:14 38.54875 -77.72604 21349 ft 328 kts 251°
2026-05-08 02:14 38.53990 -77.75326 21857 ft 330 kts 250°
2026-05-08 02:14 38.52947 -77.77937 22324 ft 335 kts 245°
2026-05-08 02:15 38.51696 -77.80427 22824 ft 338 kts 240°
2026-05-08 02:15 38.50216 -77.82803 23330 ft 343 kts 236°
2026-05-08 02:15 38.48643 -77.85072 23789 ft 344 kts 235°
2026-05-08 02:15 38.47026 -77.87367 24219 ft 347 kts 236°
2026-05-08 02:16 38.45445 -77.89697 24641 ft 346 kts 237°
2026-05-08 02:16 38.43964 -77.92096 25084 ft 346 kts 240°
2026-05-08 02:16 38.42575 -77.94569 25462 ft 347 kts 242°
2026-05-08 02:16 38.41161 -77.97119 25822 ft 350 kts 241°
2026-05-08 02:17 38.39740 -77.99676 25953 ft 358 kts 241°
2026-05-08 02:17 38.38306 -78.02258 26101 ft 364 kts 241°
2026-05-08 02:17 38.36839 -78.04896 26242 ft 371 kts 242°
2026-05-08 02:17 38.35343 -78.07588 26373 ft 376 kts 241°
2026-05-08 02:18 38.33805 -78.10359 26502 ft 382 kts 242°
2026-05-08 02:18 38.32261 -78.13128 26616 ft 387 kts 242°
2026-05-08 02:18 38.30693 -78.15947 26730 ft 391 kts 241°
2026-05-08 02:18 38.29132 -78.18743 26969 ft 392 kts 241°
2026-05-08 02:19 38.27555 -78.21564 27266 ft 390 kts 241°
2026-05-08 02:19 38.25980 -78.24381 27650 ft 387 kts 241°
2026-05-08 02:19 38.24414 -78.27175 27962 ft 386 kts 241°
2026-05-08 02:19 38.22867 -78.29941 28227 ft 386 kts 242°
2026-05-08 02:20 38.21308 -78.32720 28538 ft 384 kts 242°
2026-05-08 02:20 38.19775 -78.35458 28854 ft 382 kts 242°
2026-05-08 02:20 38.18235 -78.38208 29180 ft 380 kts 242°
2026-05-08 02:20 38.16679 -78.40932 29517 ft 379 kts 240°
2026-05-08 02:21 38.15099 -78.43584 29785 ft 378 kts 241°
2026-05-08 02:21 38.13482 -78.46272 29995 ft 379 kts 241°
2026-05-08 02:21 38.11904 -78.48904 30192 ft 378 kts 241°
2026-05-08 02:21 38.10315 -78.51558 30477 ft 376 kts 241°
2026-05-08 02:22 38.08734 -78.54181 30777 ft 374 kts 242°
2026-05-08 02:22 38.07141 -78.56831 31009 ft 373 kts 241°
2026-05-08 02:22 38.05593 -78.59422 31268 ft 370 kts 242°
2026-05-08 02:22 38.04035 -78.62010 31573 ft 367 kts 242°
2026-05-08 02:23 38.02484 -78.64589 31840 ft 364 kts 242°
2026-05-08 02:23 38.00947 -78.67145 32125 ft 362 kts 242°
2026-05-08 02:23 37.99432 -78.69662 32375 ft 360 kts 241°
2026-05-08 02:23 37.97921 -78.72174 32640 ft 359 kts 242°
2026-05-08 02:24 37.96431 -78.74653 32881 ft 357 kts 242°
2026-05-08 02:24 37.94920 -78.77153 33167 ft 354 kts 242°
2026-05-08 02:24 37.93424 -78.79621 33425 ft 352 kts 243°
2026-05-08 02:24 37.91940 -78.82085 33686 ft 348 kts 242°
2026-05-08 02:25 37.90498 -78.84462 33925 ft 332 kts 242°
2026-05-08 02:25 37.89113 -78.86744 33962 ft 326 kts 243°
2026-05-08 02:25 37.86366 -78.91291 33960 ft 327 kts 244°
2026-05-08 02:26 37.83616 -78.95840 33969 ft 325 kts 243°
2026-05-08 02:26 37.80872 -79.00377 33964 ft 323 kts 243°
2026-05-08 02:27 37.78126 -79.04896 33961 ft 323 kts 243°
2026-05-08 02:27 37.75378 -79.09412 33958 ft 324 kts 243°
2026-05-08 02:28 37.72618 -79.13937 33956 ft 323 kts 243°
2026-05-08 02:28 37.69881 -79.18423 33963 ft 323 kts 243°
2026-05-08 02:29 37.67157 -79.22960 33950 ft 323 kts 244°
2026-05-08 02:29 37.64465 -79.27517 33964 ft 321 kts 244°
2026-05-08 02:30 37.61792 -79.32032 33955 ft 322 kts 244°
2026-05-08 02:30 37.59110 -79.36540 33960 ft 322 kts 244°
2026-05-08 02:31 37.56408 -79.41089 33962 ft 322 kts 244°
2026-05-08 02:31 37.53721 -79.45611 33945 ft 320 kts 244°
2026-05-08 02:32 37.51037 -79.50105 33974 ft 321 kts 244°
2026-05-08 02:32 37.48337 -79.54617 33962 ft 321 kts 245°
2026-05-08 02:33 37.45679 -79.59071 33967 ft 319 kts 244°
2026-05-08 02:33 37.42984 -79.63565 33963 ft 321 kts 244°
2026-05-08 02:34 37.40285 -79.68065 33970 ft 321 kts 244°
2026-05-08 02:34 37.37579 -79.72572 33973 ft 322 kts 244°
2026-05-08 02:35 37.34851 -79.77113 33980 ft 322 kts 244°
2026-05-08 02:35 37.32151 -79.81596 33983 ft 323 kts 244°
2026-05-08 02:36 37.29444 -79.86089 33979 ft 321 kts 244°
2026-05-08 02:36 37.26740 -79.90564 33981 ft 321 kts 244°
2026-05-08 02:37 37.24038 -79.95029 33978 ft 322 kts 244°
2026-05-08 02:37 37.21318 -79.99528 33993 ft 321 kts 244°
2026-05-08 02:38 37.18607 -80.04008 33994 ft 321 kts 244°
2026-05-08 02:38 37.15903 -80.08449 33991 ft 323 kts 245°
2026-05-08 02:39 37.13176 -80.12937 33987 ft 323 kts 244°
2026-05-08 02:39 37.10465 -80.17395 33993 ft 321 kts 244°
2026-05-08 02:40 37.07757 -80.21840 34001 ft 321 kts 244°
2026-05-08 02:40 37.05052 -80.26263 33997 ft 322 kts 245°
2026-05-08 02:41 37.02286 -80.30679 33999 ft 325 kts 242°
2026-05-08 02:41 36.99200 -80.34880 33995 ft 329 kts 239°
2026-05-08 02:42 36.96029 -80.38959 33996 ft 327 kts 239°
2026-05-08 02:42 36.92841 -80.43055 33997 ft 328 kts 239°
2026-05-08 02:43 36.89659 -80.47134 33998 ft 328 kts 239°
2026-05-08 02:43 36.86464 -80.51218 34003 ft 328 kts 239°
2026-05-08 02:44 36.83272 -80.55294 34003 ft 328 kts 239°
2026-05-08 02:44 36.80065 -80.59373 34007 ft 327 kts 239°
2026-05-08 02:45 36.76879 -80.63427 34002 ft 327 kts 238°
2026-05-08 02:45 36.73688 -80.67474 34002 ft 328 kts 239°
2026-05-08 02:46 36.70486 -80.71538 34008 ft 329 kts 239°
2026-05-08 02:46 36.67267 -80.75616 34007 ft 330 kts 238°
2026-05-08 02:47 36.64060 -80.79679 34005 ft 329 kts 239°
2026-05-08 02:47 36.60837 -80.83749 34009 ft 328 kts 238°
2026-05-08 02:48 36.57633 -80.87798 34007 ft 328 kts 238°
2026-05-08 02:48 36.54400 -80.91871 34011 ft 331 kts 239°